Location: Holyhead Bay
(53.3667°N, 4.6667°W)
Time: 18:34:53
(UTC+00:00)

SL-16 R/B - Pass Details

Date: 24 November 2020
Orbit: 842 x 846 km, 71.0° (Epoch: 16 January)

Event Time Altitude Azimuth Distance (km) Brightness Sun altitude
Rises 19:28:09 0° 298° (WNW) 3,409 6.3 -28.8°
Reaches altitude 10° 19:32:04 10° 325° (NW) 2,476 5.1 -29.3°
Maximum altitude 19:34:47 13° 354° (N) 2,239 4.5 -29.7°
Enters shadow 19:35:39 13° 3° (N) 2,265 4.4 -29.9°
